First Ferry Vi — VRS4293 — position and weather

sailwx.info

Track history (hours):
 
Tides and Currents Weather Stations Pressure Air Temp Water Temp Dewpoint Dewpoint Depression Visibility Wind Speed Wind Dir Waves Ship Positions

First Ferry Vi

Last reported at 2014-Oct-26 08:29 UTC. Time now 2014-Oct-26 08:37 UTC.
Position N 22°18' E 114°08'.

Length 36 m; draft 1.8 m.

Type: Ship. MMSI: 477995028.

Date/timePositionNaut miles runAvg speedWind from/ knotsBaromVisibWave heightAir tempDewpointWater temp
2014-Oct-26 08:29N 22°18' E 114°08'0 0.1
2014-Oct-26 06:29N 22°18' E 114°08'0 0.1
2014-Oct-26 04:10N 22°18' E 114°08'1 0.4
2014-Oct-26 00:33N 22°17' E 114°10'2 1.1
2014-Oct-25 23:08N 22°18' E 114°08'2 0.2
2014-Oct-25 15:09N 22°17' E 114°10'1 1.3
2014-Oct-25 14:10N 22°18' E 114°08'1 0.5
2014-Oct-25 11:33N 22°17' E 114°10'2 1.3
2014-Oct-25 10:10N 22°18' E 114°08'2 2.5
2014-Oct-25 09:31N 22°17' E 114°10'0 0.1
2014-Oct-25 07:20N 22°17' E 114°10'0 0.0
2014-Oct-25 05:32N 22°17' E 114°10'2 2.4
2014-Oct-25 04:31N 22°19' E 114°12'2 2.2
2014-Oct-25 03:27N 22°17' E 114°10'0 0.1
2014-Oct-25 01:33N 22°17' E 114°10'0 0.3
2014-Oct-25 00:33N 22°17' E 114°10'2 1.7
2014-Oct-24 23:08N 22°18' E 114°08'2 0.2
2014-Oct-24 15:33N 22°17' E 114°10'2 1.2
2014-Oct-24 14:09N 22°18' E 114°08'2 2.5
2014-Oct-24 13:23N 22°17' E 114°10'0 0.3
2014-Oct-24 12:32N 22°17' E 114°10'1 1.0
2014-Oct-24 11:23N 22°18' E 114°08'1 0.5
2014-Oct-24 10:09N 22°18' E 114°08'3 5.3
2014-Oct-24 09:31N 22°18' E 114°11'1 1.1
2014-Oct-24 08:33N 22°19' E 114°12'0 0.0
2014-Oct-24 07:33N 22°19' E 114°12'0 0.0
2014-Oct-24 06:33N 22°19' E 114°12'2 2.0
2014-Oct-24 05:31N 22°17' E 114°10'1 0.3
2014-Oct-24 03:18N 22°17' E 114°10'1 0.4
2014-Oct-24 01:33N 22°18' E 114°09'1 1.1
2014-Oct-24 00:33N 22°19' E 114°09'2 1.2
2014-Oct-23 23:08N 22°18' E 114°08'2 0.2
2014-Oct-23 15:33N 22°17' E 114°10'2 1.1
2014-Oct-23 14:09N 22°18' E 114°08'2 0.9
2014-Oct-23 12:33N 22°17' E 114°10'1 1.1
2014-Oct-23 11:23N 22°18' E 114°08'0 0.2
2014-Oct-23 10:10N 22°18' E 114°08'4 6.1
2014-Oct-23 09:33N 22°19' E 114°12'0 0.2
2014-Oct-23 08:33N 22°19' E 114°12'0 0.0
2014-Oct-23 07:33N 22°19' E 114°12'0 0.0
2014-Oct-23 06:33N 22°19' E 114°12'1 1.4
2014-Oct-23 05:32N 22°18' E 114°11'1 0.7
2014-Oct-23 03:28N 22°17' E 114°10'0 0.1
2014-Oct-23 00:27N 22°17' E 114°10'2 1.4
2014-Oct-22 23:08N 22°18' E 114°08'1 0.2
2014-Oct-22 15:33N 22°17' E 114°10'1 0.9
2014-Oct-22 14:10N 22°18' E 114°08'2 2.2
2014-Oct-22 13:25N 22°17' E 114°10'0 0.4
2014-Oct-22 12:32N 22°17' E 114°10'1 1.3
2014-Oct-22 11:24N 22°18' E 114°08'0 0.1
2014-Oct-22 10:09N 22°18' E 114°08'4 5.2
2014-Oct-22 09:28N 22°19' E 114°12'2 0.4
2014-Oct-22 05:28N 22°17' E 114°11'1 0.4
2014-Oct-22 03:23N 22°17' E 114°10'0 0.1
2014-Oct-22 01:05N 22°17' E 114°10'1 2.6
2014-Oct-22 00:32N 22°19' E 114°09'1 0.9
2014-Oct-21 23:08N 22°18' E 114°08'1 0.2
2014-Oct-21 15:07N 22°17' E 114°10'2 1.6
2014-Oct-21 14:09N 22°18' E 114°08'1 0.2
2014-Oct-21 08:16N 22°18' E 114°09'1 1.5
2014-Oct-21 07:24N 22°18' E 114°08'1 0.2
2014-Oct-21 00:30N 22°18' E 114°09'1 0.9
2014-Oct-20 23:09N 22°18' E 114°08'2 0.2
2014-Oct-20 15:32N 22°17' E 114°10'1 1.0
2014-Oct-20 14:08N 22°18' E 114°08'1 1.6
2014-Oct-20 13:34N 22°18' E 114°09'1 1.2
2014-Oct-20 12:31N 22°18' E 114°08'2 0.1
2014-Oct-20 00:32N 22°19' E 114°09'1 1.1
2014-Oct-19 23:08N 22°18' E 114°08'2 0.2
2014-Oct-19 15:24N 22°17' E 114°10'0 0.0
2014-Oct-19 13:30N 22°17' E 114°10'0 0.0
2014-Oct-19 11:30N 22°17' E 114°10'0 0.1
2014-Oct-19 09:31N 22°17' E 114°10'0 0.1
2014-Oct-19 07:33N 22°17' E 114°10'0 0.0
2014-Oct-19 05:33N 22°17' E 114°10'1 0.8
2014-Oct-19 04:09N 22°18' E 114°08'2 3.5
2014-Oct-19 03:34N 22°17' E 114°10'1 1.0
2014-Oct-19 02:34N 22°17' E 114°10'1 0.9
2014-Oct-19 01:09N 22°18' E 114°08'1 2.0
2014-Oct-19 00:34N 22°17' E 114°09'1 1.0
2014-Oct-18 23:08N 22°18' E 114°08'2 0.2
2014-Oct-18 15:32N 22°17' E 114°10'1 1.0
2014-Oct-18 14:09N 22°18' E 114°08'1 1.9
2014-Oct-18 13:25N 22°17' E 114°10'0 0.0
2014-Oct-18 11:30N 22°17' E 114°10'2 1.4
2014-Oct-18 10:11N 22°17' E 114°08'2 3.6
2014-Oct-18 09:33N 22°17' E 114°10'0 0.2
2014-Oct-18 07:30N 22°17' E 114°10'0 0.0
2014-Oct-18 05:33N 22°17' E 114°10'1 0.3
2014-Oct-18 03:30N 22°17' E 114°10'0 0.1
2014-Oct-18 01:33N 22°17' E 114°10'1 1.4
2014-Oct-18 00:28N 22°18' E 114°09'1 1.0
2014-Oct-17 23:08N 22°18' E 114°08'2 0.2
2014-Oct-17 15:07N 22°17' E 114°10'3 0.3
2014-Oct-17 07:33N 22°19' E 114°12'0 0.0
2014-Oct-17 06:32N 22°19' E 114°12'2 0.4
2014-Oct-17 01:33N 22°17' E 114°11'2 2.2
2014-Oct-17 00:33N 22°19' E 114°09'1 1.0
2014-Oct-16 23:07N 22°18' E 114°08'1 0.2
2014-Oct-16 15:08N 22°17' E 114°10'2 1.5
2014-Oct-16 14:09N 22°18' E 114°08'2 2.5
2014-Oct-16 13:25N 22°17' E 114°10'0 0.4
2014-Oct-16 12:33N 22°17' E 114°10'1 1.0
2014-Oct-16 11:22N 22°18' E 114°08'  
Track history (hours):
 
Tides and Currents Weather Stations Pressure Air Temp Water Temp Dewpoint Dewpoint Depression Visibility Wind Speed Wind Dir Waves Ship Positions

First Ferry Vi

Last reported at 2014-Oct-26 08:29 UTC. Time now 2014-Oct-26 08:37 UTC.
Position N 22°18' E 114°08'.

Length 36 m; draft 1.8 m.

Type: Ship. MMSI: 477995028.

Date/timePositionNaut miles runAvg speedWind from/ knotsBaromVisibWave heightAir tempDewpointWater temp
2014-Oct-26 08:29N 22°18' E 114°08'0 0.1
2014-Oct-26 06:29N 22°18' E 114°08'0 0.1
2014-Oct-26 04:10N 22°18' E 114°08'1 0.4
2014-Oct-26 00:33N 22°17' E 114°10'2 1.1
2014-Oct-25 23:08N 22°18' E 114°08'2 0.2
2014-Oct-25 15:09N 22°17' E 114°10'1 1.3
2014-Oct-25 14:10N 22°18' E 114°08'1 0.5
2014-Oct-25 11:33N 22°17' E 114°10'2 1.3
2014-Oct-25 10:10N 22°18' E 114°08'2 2.5
2014-Oct-25 09:31N 22°17' E 114°10'0 0.1
2014-Oct-25 07:20N 22°17' E 114°10'0 0.0
2014-Oct-25 05:32N 22°17' E 114°10'2 2.4
2014-Oct-25 04:31N 22°19' E 114°12'2 2.2
2014-Oct-25 03:27N 22°17' E 114°10'0 0.1
2014-Oct-25 01:33N 22°17' E 114°10'0 0.3
2014-Oct-25 00:33N 22°17' E 114°10'2 1.7
2014-Oct-24 23:08N 22°18' E 114°08'2 0.2
2014-Oct-24 15:33N 22°17' E 114°10'2 1.2
2014-Oct-24 14:09N 22°18' E 114°08'2 2.5
2014-Oct-24 13:23N 22°17' E 114°10'0 0.3
2014-Oct-24 12:32N 22°17' E 114°10'1 1.0
2014-Oct-24 11:23N 22°18' E 114°08'1 0.5
2014-Oct-24 10:09N 22°18' E 114°08'3 5.3
2014-Oct-24 09:31N 22°18' E 114°11'1 1.1
2014-Oct-24 08:33N 22°19' E 114°12'0 0.0
2014-Oct-24 07:33N 22°19' E 114°12'0 0.0
2014-Oct-24 06:33N 22°19' E 114°12'2 2.0
2014-Oct-24 05:31N 22°17' E 114°10'1 0.3
2014-Oct-24 03:18N 22°17' E 114°10'1 0.4
2014-Oct-24 01:33N 22°18' E 114°09'1 1.1
2014-Oct-24 00:33N 22°19' E 114°09'2 1.2
2014-Oct-23 23:08N 22°18' E 114°08'2 0.2
2014-Oct-23 15:33N 22°17' E 114°10'2 1.1
2014-Oct-23 14:09N 22°18' E 114°08'2 0.9
2014-Oct-23 12:33N 22°17' E 114°10'1 1.1
2014-Oct-23 11:23N 22°18' E 114°08'0 0.2
2014-Oct-23 10:10N 22°18' E 114°08'4 6.1
2014-Oct-23 09:33N 22°19' E 114°12'0 0.2
2014-Oct-23 08:33N 22°19' E 114°12'0 0.0
2014-Oct-23 07:33N 22°19' E 114°12'0 0.0
2014-Oct-23 06:33N 22°19' E 114°12'1 1.4
2014-Oct-23 05:32N 22°18' E 114°11'1 0.7
2014-Oct-23 03:28N 22°17' E 114°10'0 0.1
2014-Oct-23 00:27N 22°17' E 114°10'2 1.4
2014-Oct-22 23:08N 22°18' E 114°08'1 0.2
2014-Oct-22 15:33N 22°17' E 114°10'1 0.9
2014-Oct-22 14:10N 22°18' E 114°08'2 2.2
2014-Oct-22 13:25N 22°17' E 114°10'0 0.4
2014-Oct-22 12:32N 22°17' E 114°10'1 1.3
2014-Oct-22 11:24N 22°18' E 114°08'0 0.1
2014-Oct-22 10:09N 22°18' E 114°08'4 5.2
2014-Oct-22 09:28N 22°19' E 114°12'2 0.4
2014-Oct-22 05:28N 22°17' E 114°11'1 0.4
2014-Oct-22 03:23N 22°17' E 114°10'0 0.1
2014-Oct-22 01:05N 22°17' E 114°10'1 2.6
2014-Oct-22 00:32N 22°19' E 114°09'1 0.9
2014-Oct-21 23:08N 22°18' E 114°08'1 0.2
2014-Oct-21 15:07N 22°17' E 114°10'2 1.6
2014-Oct-21 14:09N 22°18' E 114°08'1 0.2
2014-Oct-21 08:16N 22°18' E 114°09'1 1.5
2014-Oct-21 07:24N 22°18' E 114°08'1 0.2
2014-Oct-21 00:30N 22°18' E 114°09'1 0.9
2014-Oct-20 23:09N 22°18' E 114°08'2 0.2
2014-Oct-20 15:32N 22°17' E 114°10'1 1.0
2014-Oct-20 14:08N 22°18' E 114°08'1 1.6
2014-Oct-20 13:34N 22°18' E 114°09'1 1.2
2014-Oct-20 12:31N 22°18' E 114°08'2 0.1
2014-Oct-20 00:32N 22°19' E 114°09'1 1.1
2014-Oct-19 23:08N 22°18' E 114°08'2 0.2
2014-Oct-19 15:24N 22°17' E 114°10'0 0.0
2014-Oct-19 13:30N 22°17' E 114°10'0 0.0
2014-Oct-19 11:30N 22°17' E 114°10'0 0.1
2014-Oct-19 09:31N 22°17' E 114°10'0 0.1
2014-Oct-19 07:33N 22°17' E 114°10'0 0.0
2014-Oct-19 05:33N 22°17' E 114°10'1 0.8
2014-Oct-19 04:09N 22°18' E 114°08'2 3.5
2014-Oct-19 03:34N 22°17' E 114°10'1 1.0
2014-Oct-19 02:34N 22°17' E 114°10'1 0.9
2014-Oct-19 01:09N 22°18' E 114°08'1 2.0
2014-Oct-19 00:34N 22°17' E 114°09'1 1.0
2014-Oct-18 23:08N 22°18' E 114°08'2 0.2
2014-Oct-18 15:32N 22°17' E 114°10'1 1.0
2014-Oct-18 14:09N 22°18' E 114°08'1 1.9
2014-Oct-18 13:25N 22°17' E 114°10'0 0.0
2014-Oct-18 11:30N 22°17' E 114°10'2 1.4
2014-Oct-18 10:11N 22°17' E 114°08'2 3.6
2014-Oct-18 09:33N 22°17' E 114°10'0 0.2
2014-Oct-18 07:30N 22°17' E 114°10'0 0.0
2014-Oct-18 05:33N 22°17' E 114°10'1 0.3
2014-Oct-18 03:30N 22°17' E 114°10'0 0.1
2014-Oct-18 01:33N 22°17' E 114°10'1 1.4
2014-Oct-18 00:28N 22°18' E 114°09'1 1.0
2014-Oct-17 23:08N 22°18' E 114°08'2 0.2
2014-Oct-17 15:07N 22°17' E 114°10'3 0.3
2014-Oct-17 07:33N 22°19' E 114°12'0 0.0
2014-Oct-17 06:32N 22°19' E 114°12'2 0.4
2014-Oct-17 01:33N 22°17' E 114°11'2 2.2
2014-Oct-17 00:33N 22°19' E 114°09'1 1.0
2014-Oct-16 23:07N 22°18' E 114°08'1 0.2
2014-Oct-16 15:08N 22°17' E 114°10'2 1.5
2014-Oct-16 14:09N 22°18' E 114°08'2 2.5
2014-Oct-16 13:25N 22°17' E 114°10'0 0.4
2014-Oct-16 12:33N 22°17' E 114°10'1 1.0
2014-Oct-16 11:22N 22°18' E 114°08'  

Dump ship's entire track history